N2YJJ-2 Weather Reports


Display with metric or nautical units.
time (UTC)temp
F
wind
direction
speed
MPH
gust
MPH
rain 1hr
in
rain 24hr
in
rain mn
in
humidity
%
barometer
mb
20260906063006 64 343 0.0 0.0 0.01 0.02 0.01 98 1021.2
20260906062006 64 343 0.0 0.0 0.00 0.01 0.00 98 1021.1
20260906061006 64 343 0.0 0.0 0.00 0.01 0.00 98 1021.2
20260906054006 64 343 0.0 0.0 0.00 0.01 0.00 98 1021.2
20260906052007 64 343 0.0 0.0 0.00 0.01 0.00 98 1021.1
20260906051006 64 343 0.0 0.0 0.00 0.01 0.00 98 1021.1
20260906045006 63 343 0.0 0.0 0.00 0.01 0.00 98 1020.9
20260906044007 63 343 0.0 0.0 0.00 0.01 0.00 98 1020.8
20260906043007 63 343 0.0 0.0 0.00 0.01 0.00 97 1020.7
20260906042006 63 343 0.0 0.0 0.00 0.01 0.00 97 1020.8
20260906041006 63 343 0.0 0.0 0.00 0.01 0.00 97 1020.7
20260906040007 63 343 0.0 0.0 0.00 0.01 0.00 97 1020.7
20260906035006 64 343 0.0 0.0 0.00 0.01 0.01 97 1020.6
20260906034007 64 343 0.0 0.0 0.00 0.01 0.01 97 1020.6
20260906033007 64 343 0.0 0.0 0.00 0.01 0.01 96 1020.7
20260906032006 64 343 0.0 0.0 0.00 0.01 0.01 96 1020.6
20260906031007 65 343 0.0 0.0 0.00 0.01 0.01 96 1020.5
20260906030006 65 343 0.0 0.0 0.00 0.01 0.01 96 1020.6
20260906025007 65 343 0.0 0.0 0.00 0.01 0.01 96 1020.6
20260906024006 65 343 0.0 0.0 0.00 0.01 0.01 96 1020.6
20260906023007 65 343 0.0 0.0 0.00 0.01 0.01 96 1020.5
20260906021003 65 343 0.0 0.0 0.00 0.01 0.01 96 1020.5
20260906020002 65 343 0.0 0.0 0.00 0.01 0.01 96 1020.4
20260906015003 65 343 0.0 0.0 0.00 0.01 0.01 95 1020.3
20260906014002 66 343 0.0 0.0 0.00 0.01 0.01 95 1020.2
20260906013003 66 343 0.0 0.0 0.00 0.01 0.01 95 1020.1
20260906012003 66 343 0.0 0.0 0.00 0.01 0.01 95 1020.1
20260906011002 66 343 0.0 0.0 0.00 0.01 0.01 94 1020.1
20260906010003 66 343 0.0 0.0 0.00 0.01 0.01 93 1020.0
20260906005003 66 343 0.0 0.0 0.00 0.01 0.01 93 1019.9
20260906003002 67 343 0.0 0.0 0.00 0.01 0.01 90 1019.8
20260906002002 67 343 0.0 0.0 0.00 0.01 0.01 90 1019.8
20260906000003 68 343 0.0 0.0 0.00 0.01 0.01 90 1019.9
20260905235003 69 343 0.0 0.0 0.00 0.01 0.01 89 1019.9
20260905234002 69 343 0.0 0.0 0.00 0.01 0.01 88 1020.0
20260905233003 69 343 0.0 0.0 0.00 0.01 0.01 88 1019.8
20260905232002 70 343 0.0 0.0 0.00 0.01 0.01 87 1019.9
20260905231002 70 343 0.0 0.0 0.00 0.01 0.01 86 1019.9
20260905230003 70 343 0.0 0.0 0.00 0.01 0.01 84 1020.0
20260905224003 71 343 0.0 0.0 0.00 0.01 0.01 80 1019.9
20260905222002 71 337 1.0 3.0 0.00 0.01 0.01 76 1019.8
20260905221003 71 346 1.0 3.0 0.00 0.01 0.01 76 1019.9
20260905215004 73 357 1.0 3.0 0.00 0.01 0.01 75 1019.7
20260905213002 74 4 0.0 3.0 0.00 0.01 0.01 71 1019.6
20260905212002 75 355 0.0 5.0 0.00 0.01 0.01 68 1019.5
20260905210003 77 321 1.0 3.0 0.00 0.01 0.01 63 1019.4
20260905205003 77 71 1.0 3.0 0.00 0.02 0.01 63 1019.4
20260905204003 77 107 1.0 3.0 0.00 0.02 0.01 65 1019.4
20260905202003 77 346 1.0 5.0 0.00 0.02 0.01 65 1019.3
20260905201003 77 78 2.0 3.0 0.00 0.02 0.01 65 1019.5
20260905200002 77 35 1.0 6.0 0.00 0.02 0.01 65 1019.4
20260905195003 77 273 1.0 3.0 0.00 0.02 0.01 66 1019.5
20260905194003 76 0 2.0 7.0 0.00 0.02 0.01 66 1019.5
20260905193003 76 355 2.0 5.0 0.00 0.02 0.01 66 1019.5
20260905192003 76 353 2.0 6.0 0.00 0.02 0.01 67 1019.6
20260905191003 76 72 2.0 8.0 0.00 0.02 0.01 67 1019.7
20260905190003 77 0 2.0 5.0 0.00 0.02 0.01 67 1019.6
20260905185003 76 355 2.0 6.0 0.00 0.02 0.01 67 1019.7
20260905181003 76 30 2.0 3.0 0.00 0.02 0.01 69 1019.4
20260905175003 76 45 2.0 7.0 0.00 0.02 0.01 68 1019.5
20260905174004 76 100 2.0 7.0 0.00 0.02 0.01 67 1019.5
20260905172002 76 21 2.0 6.0 0.00 0.02 0.01 69 1019.6
20260905171003 75 14 2.0 7.0 0.00 0.02 0.01 69 1019.6
20260905164003 76 39 3.0 8.0 0.00 0.02 0.01 68 1019.5
20260905163003 75 98 1.0 7.0 0.00 0.02 0.01 71 1019.6
20260905162004 75 348 2.0 8.0 0.00 0.02 0.01 73 1019.8
20260905160005 75 48 3.0 7.0 0.00 0.02 0.01 70 1019.9
20260905155003 75 83 2.0 3.0 0.00 0.02 0.01 75 1019.9
20260905154004 74 351 2.0 7.0 0.00 0.02 0.01 78 1019.9
20260905152004 75 355 2.0 8.0 0.00 0.02 0.01 76 1020.1
20260905151003 75 11 1.0 9.0 0.00 0.02 0.01 76 1020.0
20260905150003 74 322 2.0 9.0 0.00 0.02 0.01 77 1019.9
20260905145003 74 348 1.0 3.0 0.00 0.02 0.01 76 1020.0
20260905143003 74 275 1.0 5.0 0.00 0.02 0.01 78 1019.9
20260905142004 73 41 1.0 3.0 0.00 0.02 0.01 80 1020.0
20260905141003 72 350 1.0 5.0 0.00 0.02 0.01 83 1020.0
20260905140004 71 75 2.0 5.0 0.00 0.02 0.01 85 1020.0
20260905135004 70 69 1.0 3.0 0.00 0.02 0.01 91 1020.0
20260905133004 68 71 1.0 2.0 0.00 0.02 0.01 97 1019.9
20260905130003 66 61 0.0 0.0 0.00 0.02 0.01 100 1020.0
20260905125004 65 11 0.0 0.0 0.00 0.02 0.01 100 1020.1
20260905122002 60 288 0.0 0.0 0.00 0.02 0.01 100 1020.2
20260905121002 59 288 0.0 0.0 0.01 0.02 0.01 100 1020.1
20260905120001 59 288 0.0 0.0 0.01 0.02 0.01 100 1020.1
20260905115002 58 288 0.0 0.0 0.01 0.03 0.01 100 1020.0
20260905114001 58 288 0.0 0.0 0.01 0.03 0.01 100 1019.9
20260905113002 58 288 0.0 0.0 0.01 0.03 0.01 99 1019.7
20260905112003 58 288 0.0 0.0 0.01 0.03 0.01 99 1019.6
20260905111002 58 288 0.0 0.0 0.00 0.02 0.00 99 1019.5
20260905110003 58 288 0.0 0.0 0.00 0.02 0.00 99 1019.6
20260905105003 58 288 0.0 0.0 0.00 0.02 0.00 99 1019.6
20260905104002 58 288 0.0 0.0 0.00 0.02 0.00 99 1019.6
20260905103001 58 288 0.0 0.0 0.00 0.02 0.00 99 1019.6
20260905102001 58 288 0.0 0.0 0.00 0.02 0.00 99 1019.4
20260905101002 58 288 0.0 0.0 0.00 0.02 0.00 99 1019.2
20260905095001 58 288 0.0 0.0 0.00 0.02 0.00 99 1019.2
20260905094002 59 288 0.0 0.0 0.00 0.02 0.00 99 1019.2
20260905093002 59 288 0.0 0.0 0.00 0.02 0.00 99 1019.1
20260905092002 59 288 0.0 0.0 0.00 0.02 0.00 99 1019.0
20260905091001 59 288 0.0 0.0 0.00 0.02 0.00 99 1018.9
20260905090003 59 288 0.0 0.0 0.00 0.02 0.00 99 1018.8
20260905085002 59 288 0.0 0.0 0.00 0.02 0.00 99 1018.6
20260905084001 59 288 0.0 0.0 0.00 0.02 0.00 99 1018.6
20260905083002 60 288 0.0 0.0 0.00 0.02 0.00 99 1018.6
20260905082002 60 288 0.0 0.0 0.00 0.02 0.00 98 1018.5
20260905081003 60 288 0.0 0.0 0.00 0.02 0.00 99 1018.5
20260905075001 60 288 0.0 0.0 0.00 0.02 0.00 99 1018.9
20260905074001 60 288 0.0 0.0 0.00 0.02 0.00 99 1018.9
20260905073003 61 288 0.0 0.0 0.00 0.02 0.00 99 1018.9
20260905072002 61 288 0.0 0.0 0.00 0.02 0.00 98 1018.9
20260905071002 61 288 0.0 0.0 0.00 0.02 0.00 98 1018.8
20260905070002 61 288 0.0 0.0 0.00 0.02 0.00 98 1018.9